Learmonth, Australia

3:50 PM AWST on July 25, 2017 (GMT +0800)
Learmonth

Weather History for YPLM - March, 2014

Change the Weather History Date:

Thursday, March 20, 2014

  Actual Average Record
Temperature  
Mean Temperature 96 °F -  
Max Temperature 108 °F 91 °F 108 °F (2014)
Min Temperature 83 °F 69 °F 68 °F (2004)
Cooling Degree Days 30    
Growing Degree Days 46 (Base 50)    
Moisture  
Dew Point 53 °F    
Average Humidity 25    
Maximum Humidity 70    
Minimum Humidity 7    
Precipitation  
Precipitation 0.00 in 0.03 in - ()
Sea Level Pressure  
Sea Level Pressure 29.82 in    
Wind  
Wind Speed 9 mph ()    
Max Wind Speed 24 mph    
Max Gust Speed -    
Visibility 7.6 miles    
Events      
Averages and records for this station are not official NWS values.
T = Trace of Precipitation, MM = Missing Value Source: Averaged Metar Reports

Daily Weather History Graph

Daily Weather History Graph

Search for Another Location

Airport or City:

Trip Planner

Search our weather history database for the weather conditions in past years. The results will help you decide how hot, cold, wet, or windy it might be!

Date:

Astronomy

Mar. 20, 2014 Rise Set
Actual Time 6:27 AM AWST 6:34 PM AWST
Civil Twilight 6:04 AM AWST 6:57 PM AWST
Nautical Twilight 5:38 AM AWST 7:23 PM AWST
Astronomical Twilight 5:12 AM AWST 7:49 PM AWST
Moon 8:59 PM AWST (3/20) 9:22 AM AWST (3/20)
Length of Visible Light 12h 52m
Length of Day
12h 07m
Waning Gibbous, 88% of the Moon is Illuminated
Mar 20
Waning Gibbous
Mar 24
Last Quarter
Mar 31
New
Apr 7
First Quarter
Apr 15
Full

Hourly Weather History & Observations

Time (AWST) Temp. Heat Index Dew Point Humidity Pressure Visibility Wind Dir Wind Speed Gust Speed Precip Events Conditions
12:00 AM 89 °F - 57 °F 24% 29.89 in - SSW 5.8 mph - -  
12:00 AM 89.6 °F 88.1 °F 57.2 °F 33% 29.89 in 6.2 mi SSW 5.8 mph - N/A   Unknown
12:30 AM 87.8 °F 89.4 °F 64.4 °F 46% 29.89 in 6.2 mi ENE 4.6 mph - N/A   Unknown
1:00 AM 86.0 °F 89.4 °F 68.0 °F 55% 29.86 in 6.2 mi East 2.3 mph - N/A   Unknown
1:30 AM 84.2 °F 85.6 °F 64.4 °F 51% 29.86 in 6.2 mi SE 2.3 mph - N/A   Unknown
2:00 AM 84 °F - 59 °F 32% 29.86 in - SSW 6.9 mph - -  
2:00 AM 84.2 °F 83.8 °F 59.0 °F 42% 29.86 in 6.2 mi SSW 6.9 mph - N/A   Unknown
2:30 AM 84.2 °F 83.5 °F 57.2 °F 40% 29.83 in 6.2 mi SW 6.9 mph - N/A   Unknown
3:00 AM 85 °F - 57 °F 28% 29.85 in - SW 6.9 mph - -  
3:00 AM 84.2 °F 83.5 °F 57.2 °F 40% 29.83 in 6.2 mi SSW 6.9 mph - N/A   Unknown
3:30 AM 86.0 °F 84.2 °F 53.6 °F 33% 29.83 in 6.2 mi SSW 9.2 mph - N/A   Unknown
4:00 AM 84.2 °F - 51.8 °F 33% 29.83 in 6.2 mi SSW 8.1 mph - N/A   Unknown
4:30 AM 84.2 °F - 51.8 °F 33% 29.83 in 6.2 mi SSW 6.9 mph - N/A   Unknown
5:00 AM 84 °F - 54 °F 25% 29.85 in - SSW 8.1 mph - -  
5:00 AM 84.2 °F 82.8 °F 53.6 °F 35% 29.83 in 6.2 mi SSW 8.1 mph - N/A   Unknown
5:30 AM 86.0 °F 84.2 °F 53.6 °F 33% 29.83 in 6.2 mi SSW 12.7 mph - N/A   Unknown
6:00 AM 85 °F - 49 °F 19% 29.86 in 16 mi SSW 8.1 mph - -   Smoke
6:00 AM 84.2 °F - 48.2 °F 29% 29.86 in - SSW 8.1 mph - N/A   Clear
6:30 AM 84.2 °F - 48.2 °F 29% 29.86 in - SSW 8.1 mph - N/A   Clear
7:00 AM 84.2 °F - 46.4 °F 27% 29.86 in - SSW 10.4 mph - N/A   Clear
7:30 AM 86.0 °F - 46.4 °F 25% 29.86 in - SSW 10.4 mph - N/A   Clear
8:00 AM 89 °F - 45 °F 13% 29.87 in - South 10.4 mph - -  
8:00 AM 89.6 °F - 44.6 °F 21% 29.86 in - South 10.4 mph - N/A   Clear
8:30 AM 93.2 °F - 42.8 °F 17% 29.86 in - South 13.8 mph - N/A   Clear
9:00 AM 94 °F - 41 °F 8% 29.88 in 17 mi SSE 13.8 mph - -   Smoke
9:00 AM 95.0 °F - 41.0 °F 15% 29.86 in - SSE 13.8 mph - N/A   Clear
9:30 AM 96.8 °F - 41.0 °F 15% 29.86 in - SE 15.0 mph - N/A   Clear
10:00 AM 98.6 °F - 42.8 °F 15% 29.86 in - SE 15.0 mph - N/A   Clear
10:30 AM 98.6 °F - 46.4 °F 17% 29.86 in - SE 12.7 mph - N/A   Clear
11:00 AM 99 °F - 44 °F 8% 29.87 in - ESE 12.7 mph - -  
11:00 AM 98.6 °F - 44.6 °F 16% 29.86 in - ESE 12.7 mph - N/A   Clear
11:30 AM 100.4 °F - 44.6 °F 15% 29.83 in - ENE 9.2 mph - N/A   Clear
12:00 PM 101 °F - 46 °F 8% 29.83 in 19 mi East 9.2 mph - -   Partly Cloudy
12:00 PM 100.4 °F - 46.4 °F 16% 29.83 in - East 9.2 mph - N/A   Clear
12:30 PM 104.0 °F - 48.2 °F 15% 29.80 in - East 9.2 mph - N/A   Clear
1:00 PM 104.0 °F - 48.2 °F 15% 29.80 in - East 9.2 mph - N/A   Clear
1:30 PM 105.8 °F - 50.0 °F 15% 29.80 in - East 9.2 mph - N/A   Clear
2:00 PM 106 °F - 49 °F 8% 29.79 in - ENE 9.2 mph - -  
2:00 PM 105.8 °F - 50.0 °F 15% 29.77 in - ENE 9.2 mph - N/A   Clear
2:30 PM 104.0 °F - 48.2 °F 15% 29.77 in - ENE 8.1 mph - N/A   Clear
3:00 PM 106 °F - 47 °F 7% 29.77 in 19 mi NE 10.4 mph - -   Smoke
3:00 PM 105.8 °F - 46.4 °F 14% 29.77 in - NNE 10.4 mph - N/A   Clear
3:30 PM 105.8 °F - 46.4 °F 14% 29.74 in 6.2 mi NNE 6.9 mph - N/A   Unknown
4:00 PM 105.8 °F - 48.2 °F 14% 29.74 in 6.2 mi East 4.6 mph - N/A   Unknown
4:17 PM 105.8 °F - 46.4 °F 14% 29.74 in 6.2 mi SSW 19.6 mph - N/A   Unknown
4:30 PM 105.8 °F - 46.4 °F 14% 29.74 in 6.2 mi SSW 19.6 mph - N/A   Unknown
5:00 PM 102 °F - 51 °F 11% 29.76 in - SSW 24.2 mph - -  
5:00 PM 102.2 °F - 51.8 °F 18% 29.74 in 6.2 mi SSW 24.2 mph - N/A   Unknown
5:30 PM 100.4 °F - 51.8 °F 20% 29.74 in 6.2 mi SW 23.0 mph - N/A   Unknown
6:00 PM 98 °F - 56 °F 16% 29.76 in - SW 20.7 mph - -  
6:00 PM 98.6 °F 97.6 °F 57.2 °F 25% 29.74 in 6.2 mi SW 20.7 mph - N/A   Unknown
6:30 PM 95.0 °F 94.4 °F 59.0 °F 30% 29.77 in 6.2 mi SW 18.4 mph - N/A   Unknown
7:00 PM 93.2 °F 92.6 °F 59.0 °F 32% 29.77 in 6.2 mi SSW 18.4 mph - N/A   Unknown
7:30 PM 91.4 °F 90.7 °F 59.0 °F 34% 29.77 in 6.2 mi SSW 19.6 mph - N/A   Unknown
8:00 PM 90 °F - 60 °F 26% 29.80 in - SSW 19.6 mph - -  
8:00 PM 91.4 °F 91.4 °F 60.8 °F 36% 29.80 in 6.2 mi SSW 19.6 mph - N/A   Unknown
8:30 PM 89.6 °F 89.5 °F 60.8 °F 38% 29.80 in 6.2 mi SSW 17.3 mph - N/A   Unknown
9:00 PM 90 °F - 59 °F 25% 29.81 in - SSW 16.1 mph - -  
9:00 PM 89.6 °F 88.9 °F 59.0 °F 36% 29.80 in 6.2 mi SSW 16.1 mph - N/A   Unknown
9:30 PM 89.6 °F 88.9 °F 59.0 °F 36% 29.83 in 6.2 mi South 15.0 mph - N/A   Unknown
10:00 PM 89.6 °F 88.9 °F 59.0 °F 36% 29.83 in 6.2 mi South 10.4 mph - N/A   Unknown
10:30 PM 89.6 °F 88.9 °F 59.0 °F 36% 29.83 in 6.2 mi South 10.4 mph - N/A   Unknown
11:00 PM 90 °F - 59 °F 25% 29.85 in - South 9.2 mph - -  
11:00 PM 89.6 °F 88.9 °F 59.0 °F 36% 29.83 in 6.2 mi South 9.2 mph - N/A   Unknown
11:30 PM 87.8 °F 99.7 °F 77.0 °F 70% 29.83 in 6.2 mi NE 9.2 mph - N/A   Unknown